Hourly Data Report for October 03, 2016

All times are specified in Local Standard Time (LST). Add 1 hour to adjust for Daylight Saving Time where and when it is observed.

OTTAWA INTL A
ONTARIO

45°19'00.000" N
75°40'00.000" W
114.90 m
6106001
71628
YOW

Download Data

Hourly Data (October 2016)
Hourly Data Report for October 3, 2016
Temp Definition
°C
Dew Point Temp Definition
°C
Rel Hum Definition
%
Wind Dir Definition
10's deg

Wind Spd Definition
km/h
Visibility Definition
km
Stn Press Definition
kPa
Hmdx Definition


Wind Chill Definition


Weather Definition


TIME
00:00 Legend Double Dagger 13.4 13.4 100 6 7 6.4 100.13     Fog
01:00 Legend Double Dagger 13.4 13.4 100 3 12 9.7 100.13     Fog
02:00 Legend Double Dagger 13.6 13.6 100 2 9 4.8 100.15     Fog
03:00 Legend Double Dagger 13.7 13.6 99 1 9 6.4 100.19     Fog
04:00 Legend Double Dagger 13.8 13.5 98 2 11 16.1 100.20     Cloudy
05:00 Legend Double Dagger 13.7 13.2 97 36 8 24.1 100.23     LegendNANA
06:00 Legend Double Dagger 13.6 13.1 97 3 8 24.1 100.30     LegendNANA
07:00 Legend Double Dagger 13.5 12.9 96 3 10 24.1 100.33     Mostly Cloudy
08:00 Legend Double Dagger 14.3 13.2 93 4 7 24.1 100.37     LegendNANA
09:00 Legend Double Dagger 14.5 12.9 90 4 13 24.1 100.41     LegendNANA
10:00 Legend Double Dagger 15.7 12.7 82 4 7 24.1 100.49     Mostly Cloudy
11:00 Legend Double Dagger 16.2 13.0 81 5 10 24.1 100.51     LegendNANA
12:00 Legend Double Dagger 16.8 12.8 77 5 5 24.1 100.51     LegendNANA
13:00 Legend Double Dagger 18.0 12.5 70 33 4 24.1 100.50     Mostly Cloudy
14:00 Legend Double Dagger 18.8 12.4 66 1 12 24.1 100.51     LegendNANA
15:00 Legend Double Dagger 19.8 11.2 57 10 7 24.1 100.51     LegendNANA
16:00 Legend Double Dagger 19.3 11.7 61 11 7 24.1 100.56     Mainly Clear
17:00 Legend Double Dagger 18.1 11.0 63 11 5 24.1 100.59     LegendNANA
18:00 Legend Double Dagger 15.2 10.9 75 12 5 24.1 100.65     LegendNANA
19:00 Legend Double Dagger 14.0 10.5 79 11 13 24.1 100.73     Mostly Cloudy
20:00 Legend Double Dagger 13.5 10.3 81 9 12 24.1 100.83     LegendNANA
21:00 Legend Double Dagger 12.3 9.9 85 8 9 24.1 100.88     LegendNANA
22:00 Legend Double Dagger 11.1 9.7 91 5 12 24.1 100.92     Mainly Clear
23:00 Legend Double Dagger 11.8 10.1 89 6 9 24.1 100.96     LegendNANA

Notes on Data Quality.

Legend

  • E = Estimated
  • M = Missing
  • NA = Not Available
  • ‡ = Partner data that is not subject to review by the National Climate Archives
Date modified: